Time,TemperatureF,DewpointF,PressureIn,WindDirection,WindDirectionDegrees,WindSpeedMPH,WindSpeedGustMPH,Humidity,HourlyPrecipIn,Conditions,Clouds,dailyrainin,SoftwareType,DateUTC
2013-08-27 00:01:00,75.3,70.1,30.08,South,180,0.0,0.0,84,0.00,,,0.00,VWS V14.01,2013-08-27 05:01:00,
2013-08-27 00:06:00,75.2,70.0,30.08,SSW,202,0.0,0.0,84,0.00,,,0.00,VWS V14.01,2013-08-27 05:06:00,
2013-08-27 00:11:00,75.0,69.5,30.08,SSW,202,0.0,0.0,83,0.00,,,0.00,VWS V14.01,2013-08-27 05:11:00,
2013-08-27 00:16:00,74.8,69.7,30.08,South,180,0.0,0.0,84,0.00,,,0.00,VWS V14.01,2013-08-27 05:16:00,
2013-08-27 00:21:00,74.4,69.3,30.07,South,180,0.0,0.0,84,0.00,,,0.00,VWS V14.01,2013-08-27 05:21:00,
2013-08-27 00:26:00,74.3,69.2,30.07,SSW,202,1.5,1.5,84,0.00,,,0.00,VWS V14.01,2013-08-27 05:26:00,
2013-08-27 00:31:00,74.1,69.0,30.08,SSW,202,0.4,0.4,84,0.00,,,0.00,VWS V14.01,2013-08-27 05:31:00,
2013-08-27 00:36:00,74.1,69.3,30.08,SSW,202,0.0,0.0,85,0.00,,,0.00,VWS V14.01,2013-08-27 05:36:00,
2013-08-27 00:41:00,74.1,69.3,30.08,SSW,202,1.7,1.7,85,0.00,,,0.00,VWS V14.01,2013-08-27 05:41:00,
2013-08-27 00:46:00,74.1,69.3,30.08,SSW,202,0.0,0.0,85,0.00,,,0.00,VWS V14.01,2013-08-27 05:46:00,
2013-08-27 00:51:00,74.3,69.2,30.08,SSW,202,0.0,0.0,84,0.00,,,0.00,VWS V14.01,2013-08-27 05:51:00,
2013-08-27 00:56:00,74.4,69.3,30.08,SSW,202,1.3,1.3,84,0.00,,,0.00,VWS V14.01,2013-08-27 05:56:00,
2013-08-27 01:01:00,74.8,69.3,30.08,SSW,202,0.6,0.6,83,0.00,,,0.00,VWS V14.01,2013-08-27 06:01:00,
2013-08-27 01:06:00,75.0,69.5,30.08,SW,225,0.4,0.4,83,0.00,,,0.00,VWS V14.01,2013-08-27 06:06:00,
2013-08-27 01:11:00,75.0,69.1,30.08,SSW,202,1.3,1.3,82,0.00,,,0.00,VWS V14.01,2013-08-27 06:11:00,
2013-08-27 01:16:00,75.0,69.1,30.08,SW,225,0.0,0.0,82,0.00,,,0.00,VWS V14.01,2013-08-27 06:16:00,
2013-08-27 01:21:00,75.2,69.0,30.07,SSW,202,0.0,0.0,81,0.00,,,0.00,VWS V14.01,2013-08-27 06:21:00,
2013-08-27 01:26:00,75.2,69.0,30.07,SSW,202,4.9,4.9,81,0.00,,,0.00,VWS V14.01,2013-08-27 06:26:00,
2013-08-27 01:31:00,75.3,69.1,30.07,SW,225,0.0,0.0,81,0.00,,,0.00,VWS V14.01,2013-08-27 06:31:00,
2013-08-27 01:36:00,75.3,69.1,30.07,SSW,202,1.5,1.5,81,0.00,,,0.00,VWS V14.01,2013-08-27 06:36:00,
2013-08-27 01:41:00,75.3,69.1,30.07,SW,225,0.0,0.0,81,0.00,,,0.00,VWS V14.01,2013-08-27 06:41:00,
2013-08-27 01:46:00,75.3,69.1,30.07,SW,225,0.0,0.0,81,0.00,,,0.00,VWS V14.01,2013-08-27 06:46:00,
2013-08-27 01:51:00,75.0,68.8,30.07,SW,225,3.3,3.3,81,0.00,,,0.00,VWS V14.01,2013-08-27 06:51:00,
2013-08-27 01:56:00,75.0,68.8,30.07,SW,225,0.6,0.6,81,0.00,,,0.00,VWS V14.01,2013-08-27 06:56:00,
2013-08-27 02:01:00,74.8,68.6,30.07,SW,225,0.0,0.0,81,0.00,,,0.00,VWS V14.01,2013-08-27 07:01:00,
2013-08-27 02:06:00,74.4,68.2,30.07,SW,225,0.0,0.0,81,0.00,,,0.00,VWS V14.01,2013-08-27 07:06:00,
2013-08-27 02:11:00,74.3,68.4,30.07,SW,225,0.0,0.0,82,0.00,,,0.00,VWS V14.01,2013-08-27 07:11:00,
2013-08-27 02:16:00,74.3,68.4,30.07,SW,225,3.3,3.3,82,0.00,,,0.00,VWS V14.01,2013-08-27 07:16:00,
2013-08-27 02:21:00,74.1,68.3,30.07,SW,225,0.8,0.8,82,0.00,,,0.00,VWS V14.01,2013-08-27 07:21:00,
2013-08-27 02:26:00,74.1,68.3,30.07,SSW,202,3.3,3.3,82,0.00,,,0.00,VWS V14.01,2013-08-27 07:26:00,
2013-08-27 02:31:00,74.1,68.3,30.07,SW,225,1.1,1.1,82,0.00,,,0.00,VWS V14.01,2013-08-27 07:31:00,
2013-08-27 02:36:00,74.1,68.3,30.07,SW,225,6.2,6.2,82,0.00,,,0.00,VWS V14.01,2013-08-27 07:36:00,
2013-08-27 02:41:00,74.1,68.3,30.07,SW,225,0.8,0.8,82,0.00,,,0.00,VWS V14.01,2013-08-27 07:41:00,
2013-08-27 02:46:00,74.1,68.3,30.06,SW,225,0.0,0.0,82,0.00,,,0.00,VWS V14.01,2013-08-27 07:46:00,
2013-08-27 02:51:00,74.1,68.3,30.06,SW,225,1.7,1.7,82,0.00,,,0.00,VWS V14.01,2013-08-27 07:51:00,
2013-08-27 02:56:00,74.1,68.3,30.06,SW,225,3.3,3.3,82,0.00,,,0.00,VWS V14.01,2013-08-27 07:56:00,
2013-08-27 03:01:00,74.1,68.3,30.06,SW,225,2.6,2.6,82,0.00,,,0.00,VWS V14.01,2013-08-27 08:01:00,
2013-08-27 03:05:00,74.1,68.3,30.05,SW,225,0.0,0.0,82,0.00,,,0.00,VWS V14.01,2013-08-27 08:05:00,
2013-08-27 03:10:00,74.1,68.3,30.05,SW,225,3.3,3.3,82,0.00,,,0.00,VWS V14.01,2013-08-27 08:10:00,
2013-08-27 03:16:00,73.9,68.1,30.05,SSW,202,1.7,1.7,82,0.00,,,0.00,VWS V14.01,2013-08-27 08:16:00,
2013-08-27 03:20:00,73.9,68.1,30.05,SSW,202,4.2,4.2,82,0.00,,,0.00,VWS V14.01,2013-08-27 08:20:00,
2013-08-27 03:26:00,73.5,68.0,30.05,SW,225,2.2,2.2,83,0.00,,,0.00,VWS V14.01,2013-08-27 08:26:00,
2013-08-27 03:31:00,73.5,67.7,30.05,SW,225,0.4,0.4,82,0.00,,,0.00,VWS V14.01,2013-08-27 08:31:00,
2013-08-27 03:35:00,73.2,67.7,30.05,SW,225,0.0,0.0,83,0.00,,,0.00,VWS V14.01,2013-08-27 08:35:00,
2013-08-27 03:40:00,73.2,67.7,30.05,WSW,248,0.0,0.0,83,0.00,,,0.00,VWS V14.01,2013-08-27 08:40:00,
2013-08-27 03:45:00,73.0,67.5,30.06,WSW,248,0.0,0.0,83,0.00,,,0.00,VWS V14.01,2013-08-27 08:45:00,
2013-08-27 03:50:00,72.5,67.1,30.05,SW,225,0.0,0.0,83,0.00,,,0.00,VWS V14.01,2013-08-27 08:50:00,
2013-08-27 03:55:00,72.3,67.2,30.06,SW,225,0.0,0.0,84,0.00,,,0.00,VWS V14.01,2013-08-27 08:55:00,
2013-08-27 04:00:00,72.1,67.0,30.06,SW,225,0.0,0.0,84,0.00,,,0.00,VWS V14.01,2013-08-27 09:00:00,
2013-08-27 04:05:00,71.9,66.8,30.06,SW,225,0.0,0.0,84,0.00,,,0.00,VWS V14.01,2013-08-27 09:05:00,
2013-08-27 04:10:00,71.7,66.6,30.06,SW,225,0.0,0.0,84,0.00,,,0.00,VWS V14.01,2013-08-27 09:10:00,
2013-08-27 04:15:00,71.7,66.6,30.06,SW,225,0.0,0.0,84,0.00,,,0.00,VWS V14.01,2013-08-27 09:15:00,
2013-08-27 04:20:00,71.7,66.9,30.06,SW,225,0.0,0.0,85,0.00,,,0.00,VWS V14.01,2013-08-27 09:20:00,
2013-08-27 04:25:00,71.7,66.9,30.05,SW,225,0.0,0.0,85,0.00,,,0.00,VWS V14.01,2013-08-27 09:25:00,
2013-08-27 04:30:00,71.7,66.9,30.06,SW,225,0.0,0.0,85,0.00,,,0.00,VWS V14.01,2013-08-27 09:30:00,
2013-08-27 04:35:00,71.7,66.9,30.06,SW,225,0.0,0.0,85,0.00,,,0.00,VWS V14.01,2013-08-27 09:35:00,
2013-08-27 04:40:00,71.7,66.9,30.06,SW,225,1.3,1.3,85,0.00,,,0.00,VWS V14.01,2013-08-27 09:40:00,
2013-08-27 04:45:00,71.7,66.9,30.05,SW,225,0.0,0.0,85,0.00,,,0.00,VWS V14.01,2013-08-27 09:45:00,
2013-08-27 04:50:00,71.9,67.2,30.06,SW,225,1.5,1.5,85,0.00,,,0.00,VWS V14.01,2013-08-27 09:50:00,
2013-08-27 04:55:00,71.9,67.2,30.06,SW,225,0.0,0.0,85,0.00,,,0.00,VWS V14.01,2013-08-27 09:55:00,
2013-08-27 05:00:00,71.9,67.2,30.06,SW,225,0.0,0.0,85,0.00,,,0.00,VWS V14.01,2013-08-27 10:00:00,
2013-08-27 05:05:00,71.7,66.9,30.06,SW,225,1.1,1.1,85,0.00,,,0.00,VWS V14.01,2013-08-27 10:05:00,
2013-08-27 05:10:00,71.9,67.2,30.06,SW,225,6.4,6.4,85,0.00,,,0.00,VWS V14.01,2013-08-27 10:10:00,
2013-08-27 05:15:00,71.9,67.2,30.05,WSW,248,0.0,0.0,85,0.00,,,0.00,VWS V14.01,2013-08-27 10:15:00,
2013-08-27 05:20:00,71.9,67.2,30.05,SW,225,0.0,0.0,85,0.00,,,0.00,VWS V14.01,2013-08-27 10:20:00,
2013-08-27 05:25:00,71.9,67.2,30.06,SW,225,0.0,0.0,85,0.00,,,0.00,VWS V14.01,2013-08-27 10:25:00,
2013-08-27 05:30:00,71.7,66.9,30.06,WSW,248,0.0,0.0,85,0.00,,,0.00,VWS V14.01,2013-08-27 10:30:00,
2013-08-27 05:35:00,71.7,66.9,30.06,SW,225,0.8,0.8,85,0.00,,,0.00,VWS V14.01,2013-08-27 10:35:00,
2013-08-27 05:40:00,71.7,67.3,30.06,SW,225,2.0,2.0,86,0.00,,,0.00,VWS V14.01,2013-08-27 10:40:00,
2013-08-27 05:45:00,71.7,66.9,30.06,SW,225,0.0,0.0,85,0.00,,,0.00,VWS V14.01,2013-08-27 10:45:00,
2013-08-27 05:50:00,71.4,66.7,30.06,SW,225,0.0,0.0,85,0.00,,,0.00,VWS V14.01,2013-08-27 10:50:00,
2013-08-27 05:55:00,71.4,67.0,30.06,SW,225,3.3,3.3,86,0.00,,,0.00,VWS V14.01,2013-08-27 10:55:00,
2013-08-27 06:00:00,71.4,67.0,30.06,SW,225,0.8,0.8,86,0.00,,,0.00,VWS V14.01,2013-08-27 11:00:00,
2013-08-27 06:05:00,71.4,67.0,30.06,SW,225,1.5,1.5,86,0.00,,,0.00,VWS V14.01,2013-08-27 11:05:00,
2013-08-27 06:10:00,71.4,67.0,30.06,SW,225,0.6,0.6,86,0.00,,,0.00,VWS V14.01,2013-08-27 11:10:00,
2013-08-27 06:15:00,71.4,67.0,30.06,West,270,0.8,0.8,86,0.00,,,0.00,VWS V14.01,2013-08-27 11:15:00,
2013-08-27 06:20:00,71.2,66.8,30.07,SW,225,0.8,0.8,86,0.00,,,0.00,VWS V14.01,2013-08-27 11:20:00,
2013-08-27 06:25:00,71.2,66.8,30.07,SW,225,0.6,0.6,86,0.00,,,0.00,VWS V14.01,2013-08-27 11:25:00,
2013-08-27 06:30:00,71.2,66.8,30.07,SW,225,0.0,0.0,86,0.00,,,0.00,VWS V14.01,2013-08-27 11:30:00,
2013-08-27 06:35:00,71.2,66.8,30.07,SW,225,0.0,0.0,86,0.00,,,0.00,VWS V14.01,2013-08-27 11:35:00,
2013-08-27 06:40:00,71.2,66.8,30.07,SW,225,0.0,0.0,86,0.00,,,0.00,VWS V14.01,2013-08-27 11:40:00,
2013-08-27 06:45:00,71.4,67.0,30.07,SW,225,0.0,0.0,86,0.00,,,0.00,VWS V14.01,2013-08-27 11:45:00,
2013-08-27 06:50:00,71.4,67.0,30.07,SW,225,0.0,0.0,86,0.00,,,0.00,VWS V14.01,2013-08-27 11:50:00,
2013-08-27 06:55:00,71.7,67.3,30.07,WSW,248,0.0,0.0,86,0.00,,,0.00,VWS V14.01,2013-08-27 11:55:00,
2013-08-27 07:00:00,71.9,67.5,30.08,SW,225,0.0,0.0,86,0.00,,,0.00,VWS V14.01,2013-08-27 12:00:00,
2013-08-27 07:05:00,72.3,67.9,30.07,SW,225,0.0,0.0,86,0.00,,,0.00,VWS V14.01,2013-08-27 12:05:00,
2013-08-27 07:10:00,72.8,68.0,30.07,SW,225,0.0,0.0,85,0.00,,,0.00,VWS V14.01,2013-08-27 12:10:00,
2013-08-27 07:15:00,73.2,68.4,30.07,SW,225,0.0,0.0,85,0.00,,,0.00,VWS V14.01,2013-08-27 12:15:00,
2013-08-27 07:20:00,73.4,68.6,30.07,SSW,202,1.3,1.3,85,0.00,,,0.00,VWS V14.01,2013-08-27 12:20:00,
2013-08-27 07:25:00,73.4,68.6,30.07,SW,225,2.2,2.2,85,0.00,,,0.00,VWS V14.01,2013-08-27 12:25:00,
2013-08-27 07:30:00,73.2,68.1,30.08,SW,225,3.1,3.1,84,0.00,,,0.00,VWS V14.01,2013-08-27 12:30:00,
2013-08-27 07:35:00,73.4,68.6,30.07,SW,225,2.6,2.6,85,0.00,,,0.00,VWS V14.01,2013-08-27 12:35:00,
2013-08-27 07:40:00,73.5,68.7,30.07,SW,225,1.5,1.5,85,0.00,,,0.00,VWS V14.01,2013-08-27 12:40:00,
2013-08-27 07:45:00,73.7,68.6,30.08,SSW,202,6.4,6.4,84,0.00,,,0.00,VWS V14.01,2013-08-27 12:45:00,
2013-08-27 07:50:00,74.3,69.2,30.08,SW,225,6.2,6.2,84,0.00,,,0.00,VWS V14.01,2013-08-27 12:50:00,
2013-08-27 07:55:00,74.8,69.3,30.07,SW,225,4.4,4.4,83,0.00,,,0.00,VWS V14.01,2013-08-27 12:55:00,
2013-08-27 08:00:00,75.3,69.4,30.07,SW,225,3.1,3.1,82,0.00,,,0.00,VWS V14.01,2013-08-27 13:00:00,
2013-08-27 08:05:00,76.1,70.2,30.07,SW,225,1.3,1.3,82,0.00,,,0.00,VWS V14.01,2013-08-27 13:05:00,
2013-08-27 08:10:00,77.3,70.7,30.07,SW,225,5.3,5.3,80,0.00,,,0.00,VWS V14.01,2013-08-27 13:10:00,
2013-08-27 08:15:00,78.4,71.0,30.07,WSW,248,0.0,0.0,78,0.00,,,0.00,VWS V14.01,2013-08-27 13:15:00,
2013-08-27 08:20:00,78.9,71.1,30.07,SW,225,6.0,6.0,77,0.00,,,0.00,VWS V14.01,2013-08-27 13:20:00,
2013-08-27 08:25:00,79.5,71.3,30.06,SW,225,4.2,4.2,76,0.00,,,0.00,VWS V14.01,2013-08-27 13:25:00,
2013-08-27 08:30:00,80.0,71.4,30.06,SW,225,6.7,6.7,75,0.00,,,0.00,VWS V14.01,2013-08-27 13:30:00,
2013-08-27 08:35:00,80.4,71.8,30.06,SW,225,6.4,6.4,75,0.00,,,0.00,VWS V14.01,2013-08-27 13:35:00,
2013-08-27 08:40:00,80.7,72.0,30.06,SSW,202,4.0,4.0,75,0.00,,,0.00,VWS V14.01,2013-08-27 13:40:00,
2013-08-27 08:45:00,81.6,72.1,30.06,SW,225,6.4,6.4,73,0.00,,,0.00,VWS V14.01,2013-08-27 13:45:00,
2013-08-27 08:50:00,82.0,72.1,30.05,SSW,202,5.8,5.8,72,0.00,,,0.00,VWS V14.01,2013-08-27 13:50:00,
2013-08-27 08:55:00,82.2,72.7,30.06,SW,225,8.2,8.2,73,0.00,,,0.00,VWS V14.01,2013-08-27 13:55:00,
2013-08-27 09:00:00,82.5,72.6,30.06,SW,225,5.1,5.1,72,0.00,,,0.00,VWS V14.01,2013-08-27 14:00:00,
2013-08-27 09:05:00,82.5,72.6,30.05,SSW,202,5.3,5.3,72,0.00,,,0.00,VWS V14.01,2013-08-27 14:05:00,
2013-08-27 09:10:00,83.3,72.9,30.05,SSW,202,4.4,4.4,71,0.00,,,0.00,VWS V14.01,2013-08-27 14:10:00,
2013-08-27 09:15:00,84.0,73.2,30.05,SW,225,7.8,7.8,70,0.00,,,0.00,VWS V14.01,2013-08-27 14:15:00,
2013-08-27 09:20:00,84.2,72.9,30.05,SW,225,7.8,7.8,69,0.00,,,0.00,VWS V14.01,2013-08-27 14:20:00,
2013-08-27 09:25:00,84.7,73.0,30.05,WNW,292,5.1,5.1,68,0.00,,,0.00,VWS V14.01,2013-08-27 14:25:00,
2013-08-27 09:30:00,85.2,73.0,30.05,SW,225,4.4,4.4,67,0.00,,,0.00,VWS V14.01,2013-08-27 14:30:00,
2013-08-27 09:35:00,85.6,72.9,30.05,WNW,292,11.1,11.1,66,0.00,,,0.00,VWS V14.01,2013-08-27 14:35:00,
2013-08-27 09:40:00,85.8,73.6,30.04,SSW,202,6.9,6.9,67,0.00,,,0.00,VWS V14.01,2013-08-27 14:40:00,
2013-08-27 09:45:00,86.1,73.4,30.04,SW,225,6.4,6.4,66,0.00,,,0.00,VWS V14.01,2013-08-27 14:45:00,
2013-08-27 09:50:00,86.3,73.2,30.04,SW,225,2.4,2.4,65,0.00,,,0.00,VWS V14.01,2013-08-27 14:50:00,
2013-08-27 09:55:00,87.0,73.4,30.04,SW,225,9.6,9.6,64,0.00,,,0.00,VWS V14.01,2013-08-27 14:55:00,
2013-08-27 10:00:00,87.4,73.3,30.04,SW,225,8.9,8.9,63,0.00,,,0.00,VWS V14.01,2013-08-27 15:00:00,
2013-08-27 10:05:00,86.7,73.1,30.04,SW,225,5.5,5.5,64,0.00,,,0.00,VWS V14.01,2013-08-27 15:05:00,
2013-08-27 10:10:00,86.7,73.1,30.03,SW,225,10.9,10.9,64,0.00,,,0.00,VWS V14.01,2013-08-27 15:10:00,
2013-08-27 10:15:00,87.0,72.9,30.03,WSW,248,8.0,8.0,63,0.00,,,0.00,VWS V14.01,2013-08-27 15:15:00,
2013-08-27 10:20:00,87.6,73.0,30.03,WSW,248,5.8,5.8,62,0.00,,,0.00,VWS V14.01,2013-08-27 15:20:00,
2013-08-27 10:25:00,87.6,73.0,30.03,SW,225,10.9,10.9,62,0.00,,,0.00,VWS V14.01,2013-08-27 15:25:00,
2013-08-27 10:30:00,87.2,72.6,30.03,SW,225,7.3,7.3,62,0.00,,,0.00,VWS V14.01,2013-08-27 15:30:00,
2013-08-27 10:35:00,87.6,73.0,30.03,SW,225,12.5,12.5,62,0.00,,,0.00,VWS V14.01,2013-08-27 15:35:00,
2013-08-27 10:40:00,87.9,72.8,30.04,SW,225,6.0,6.0,61,0.00,,,0.00,VWS V14.01,2013-08-27 15:40:00,
2013-08-27 10:45:00,88.7,74.5,30.04,SW,225,5.5,5.5,63,0.00,,,0.00,VWS V14.01,2013-08-27 15:45:00,
2013-08-27 10:50:00,89.2,73.5,30.03,WNW,292,8.0,8.0,60,0.00,,,0.00,VWS V14.01,2013-08-27 15:50:00,
2013-08-27 10:55:00,88.8,74.1,30.04,SSW,202,6.2,6.2,62,0.00,,,0.00,VWS V14.01,2013-08-27 15:55:00,
2013-08-27 11:00:00,89.4,73.7,30.04,SW,225,12.0,12.0,60,0.00,,,0.00,VWS V14.01,2013-08-27 16:00:00,
2013-08-27 11:05:00,89.4,73.7,30.04,SSW,202,4.9,4.9,60,0.00,,,0.00,VWS V14.01,2013-08-27 16:05:00,
2013-08-27 11:10:00,89.2,73.5,30.03,West,270,5.1,5.1,60,0.00,,,0.00,VWS V14.01,2013-08-27 16:10:00,
2013-08-27 11:15:00,89.4,73.7,30.03,SW,225,14.0,14.0,60,0.00,,,0.00,VWS V14.01,2013-08-27 16:15:00,
2013-08-27 11:20:00,89.2,73.5,30.03,SW,225,5.5,5.5,60,0.00,,,0.00,VWS V14.01,2013-08-27 16:20:00,
2013-08-27 11:25:00,88.8,73.6,30.03,SW,225,6.9,6.9,61,0.00,,,0.00,VWS V14.01,2013-08-27 16:25:00,
2013-08-27 11:30:00,89.7,74.0,30.03,SW,225,5.8,5.8,60,0.00,,,0.00,VWS V14.01,2013-08-27 16:30:00,
2013-08-27 11:35:00,90.1,73.8,30.03,SW,225,7.3,7.3,59,0.00,,,0.00,VWS V14.01,2013-08-27 16:35:00,
2013-08-27 11:40:00,89.4,73.7,30.03,SSW,202,13.6,13.6,60,0.00,,,0.00,VWS V14.01,2013-08-27 16:40:00,
2013-08-27 11:45:00,89.7,73.5,30.03,SW,225,5.3,5.3,59,0.00,,,0.00,VWS V14.01,2013-08-27 16:45:00,
2013-08-27 11:50:00,90.1,74.3,30.02,SW,225,9.1,9.1,60,0.00,,,0.00,VWS V14.01,2013-08-27 16:50:00,
2013-08-27 11:55:00,90.1,73.3,30.02,WNW,292,8.7,8.7,58,0.00,,,0.00,VWS V14.01,2013-08-27 16:55:00,
2013-08-27 12:00:00,90.5,73.7,30.02,SW,225,5.8,5.8,58,0.00,,,0.00,VWS V14.01,2013-08-27 17:00:00,
2013-08-27 12:05:00,90.8,74.0,30.02,WSW,248,12.0,12.0,58,0.00,,,0.00,VWS V14.01,2013-08-27 17:05:00,
2013-08-27 12:10:00,90.6,73.8,30.02,South,180,3.3,3.3,58,0.00,,,0.00,VWS V14.01,2013-08-27 17:10:00,
2013-08-27 12:15:00,91.2,74.4,30.02,WSW,248,6.7,6.7,58,0.00,,,0.00,VWS V14.01,2013-08-27 17:15:00,
2013-08-27 12:20:00,91.5,74.1,30.01,SW,225,13.1,13.1,57,0.00,,,0.00,VWS V14.01,2013-08-27 17:20:00,
2013-08-27 12:25:00,90.6,72.8,30.01,WSW,248,8.9,8.9,56,0.00,,,0.00,VWS V14.01,2013-08-27 17:25:00,
2013-08-27 12:30:00,91.0,73.7,30.01,West,270,7.1,7.1,57,0.00,,,0.00,VWS V14.01,2013-08-27 17:30:00,
2013-08-27 12:35:00,91.5,74.1,30.01,SSW,202,3.8,7.6,57,0.00,,,0.00,VWS V14.01,2013-08-27 17:35:00,
2013-08-27 12:40:00,91.7,73.8,30.01,SW,225,9.1,9.1,56,0.00,,,0.00,VWS V14.01,2013-08-27 17:40:00,
2013-08-27 12:45:00,91.4,73.5,30.01,SW,225,8.9,8.9,56,0.00,,,0.00,VWS V14.01,2013-08-27 17:45:00,
2013-08-27 12:50:00,91.5,74.1,30.00,SSW,202,6.4,6.4,57,0.00,,,0.00,VWS V14.01,2013-08-27 17:50:00,
2013-08-27 12:55:00,91.7,73.8,30.00,SW,225,7.3,7.3,56,0.00,,,0.00,VWS V14.01,2013-08-27 17:55:00,
2013-08-27 13:00:00,91.5,73.6,30.00,SSW,202,8.5,8.5,56,0.00,,,0.00,VWS V14.01,2013-08-27 18:00:00,
2013-08-27 13:05:00,92.1,74.7,30.00,WSW,248,5.5,5.5,57,0.00,,,0.00,VWS V14.01,2013-08-27 18:05:00,
2013-08-27 13:10:00,91.9,74.0,30.00,SW,225,10.0,10.0,56,0.00,,,0.00,VWS V14.01,2013-08-27 18:10:00,
2013-08-27 13:15:00,92.1,74.7,30.00,SW,225,7.8,7.8,57,0.00,,,0.00,VWS V14.01,2013-08-27 18:15:00,
2013-08-27 13:20:00,91.9,74.5,30.00,WSW,248,6.9,6.9,57,0.00,,,0.00,VWS V14.01,2013-08-27 18:20:00,
2013-08-27 13:25:00,92.1,73.6,30.00,SW,225,12.5,12.5,55,0.00,,,0.00,VWS V14.01,2013-08-27 18:25:00,
2013-08-27 13:30:00,91.9,74.5,30.00,SW,225,5.1,5.1,57,0.00,,,0.00,VWS V14.01,2013-08-27 18:30:00,
2013-08-27 13:35:00,92.6,74.1,29.99,SW,225,14.9,14.9,55,0.00,,,0.00,VWS V14.01,2013-08-27 18:35:00,
2013-08-27 13:40:00,92.4,75.0,29.99,SSW,202,15.6,15.6,57,0.00,,,0.00,VWS V14.01,2013-08-27 18:40:00,
2013-08-27 13:45:00,92.4,73.9,29.99,WNW,292,12.5,12.5,55,0.00,,,0.00,VWS V14.01,2013-08-27 18:45:00,
2013-08-27 13:50:00,93.2,74.1,29.99,SSW,202,8.7,8.7,54,0.00,,,0.00,VWS V14.01,2013-08-27 18:50:00,
2013-08-27 13:55:00,93.2,74.6,29.99,SW,225,8.2,8.2,55,0.00,,,0.00,VWS V14.01,2013-08-27 18:55:00,
2013-08-27 14:00:00,93.7,74.6,29.99,SW,225,6.4,6.4,54,0.00,,,0.00,VWS V14.01,2013-08-27 19:00:00,
2013-08-27 14:05:00,93.3,74.2,29.99,SSW,202,8.2,8.2,54,0.00,,,0.00,VWS V14.01,2013-08-27 19:05:00,
2013-08-27 14:10:00,93.0,74.5,29.98,SSW,202,7.6,7.6,55,0.00,,,0.00,VWS V14.01,2013-08-27 19:10:00,
2013-08-27 14:15:00,93.3,73.6,29.98,SSW,202,8.2,8.2,53,0.00,,,0.00,VWS V14.01,2013-08-27 19:15:00,
2013-08-27 14:20:00,93.5,73.8,29.98,SW,225,9.6,9.6,53,0.00,,,0.00,VWS V14.01,2013-08-27 19:20:00,
2013-08-27 14:25:00,93.9,74.2,29.98,SW,225,14.5,14.5,53,0.00,,,0.00,VWS V14.01,2013-08-27 19:25:00,
2013-08-27 14:30:00,93.9,74.2,29.98,SW,225,11.6,11.6,53,0.00,,,0.00,VWS V14.01,2013-08-27 19:30:00,
2013-08-27 14:35:00,94.1,74.4,29.97,SSW,202,9.6,9.6,53,0.00,,,0.00,VWS V14.01,2013-08-27 19:35:00,
2013-08-27 14:40:00,94.4,74.6,29.97,SSW,202,6.2,6.2,53,0.00,,,0.00,VWS V14.01,2013-08-27 19:40:00,
2013-08-27 14:45:00,94.1,73.2,29.97,WSW,248,9.3,9.3,51,0.00,,,0.00,VWS V14.01,2013-08-27 19:45:00,
2013-08-27 14:50:00,94.2,74.5,29.97,SW,225,9.1,9.1,53,0.00,,,0.00,VWS V14.01,2013-08-27 19:50:00,
2013-08-27 14:55:00,94.6,74.3,29.97,SW,225,15.8,15.8,52,0.00,,,0.00,VWS V14.01,2013-08-27 19:55:00,
2013-08-27 15:00:00,94.1,73.2,29.97,SW,225,11.6,11.6,51,0.00,,,0.00,VWS V14.01,2013-08-27 20:00:00,
2013-08-27 15:05:00,94.2,73.3,29.96,SW,225,9.6,9.6,51,0.00,,,0.00,VWS V14.01,2013-08-27 20:05:00,
2013-08-27 15:10:00,94.6,73.7,29.96,SW,225,10.0,10.0,51,0.00,,,0.00,VWS V14.01,2013-08-27 20:10:00,
2013-08-27 15:15:00,95.0,74.1,29.96,SW,225,10.7,10.7,51,0.00,,,0.00,VWS V14.01,2013-08-27 20:15:00,
2013-08-27 15:20:00,95.5,73.9,29.96,SW,225,11.4,11.4,50,0.00,,,0.00,VWS V14.01,2013-08-27 20:20:00,
2013-08-27 15:25:00,94.8,73.3,29.96,SW,225,6.9,6.9,50,0.00,,,0.00,VWS V14.01,2013-08-27 20:25:00,
2013-08-27 15:30:00,94.6,73.7,29.96,SSW,202,8.7,8.7,51,0.00,,,0.00,VWS V14.01,2013-08-27 20:30:00,
2013-08-27 15:35:00,95.0,74.6,29.96,SW,225,7.6,7.6,52,0.00,,,0.00,VWS V14.01,2013-08-27 20:35:00,
2013-08-27 15:40:00,94.8,73.3,29.95,SSW,202,5.8,5.8,50,0.00,,,0.00,VWS V14.01,2013-08-27 20:40:00,
2013-08-27 15:45:00,94.6,73.7,29.95,WSW,248,9.6,9.6,51,0.00,,,0.00,VWS V14.01,2013-08-27 20:45:00,
2013-08-27 15:50:00,94.8,73.9,29.95,SW,225,13.4,13.4,51,0.00,,,0.00,VWS V14.01,2013-08-27 20:50:00,
2013-08-27 15:55:00,94.6,73.7,29.95,SW,225,8.9,8.9,51,0.00,,,0.00,VWS V14.01,2013-08-27 20:55:00,
2013-08-27 16:00:00,94.8,73.3,29.95,SW,225,12.3,12.3,50,0.00,,,0.00,VWS V14.01,2013-08-27 21:00:00,
2013-08-27 16:05:00,94.8,73.9,29.95,SW,225,5.3,5.3,51,0.00,,,0.00,VWS V14.01,2013-08-27 21:05:00,
2013-08-27 16:10:00,94.8,72.7,29.95,SW,225,9.6,9.6,49,0.00,,,0.00,VWS V14.01,2013-08-27 21:10:00,
2013-08-27 16:15:00,94.6,73.1,29.95,SW,225,10.7,10.7,50,0.00,,,0.00,VWS V14.01,2013-08-27 21:15:00,
2013-08-27 16:20:00,94.8,73.3,29.95,SSW,202,5.3,5.3,50,0.00,,,0.00,VWS V14.01,2013-08-27 21:20:00,
2013-08-27 16:25:00,94.8,72.7,29.95,SW,225,12.3,12.3,49,0.00,,,0.00,VWS V14.01,2013-08-27 21:25:00,
2013-08-27 16:30:00,95.0,73.5,29.95,SSW,202,6.2,6.2,50,0.00,,,0.00,VWS V14.01,2013-08-27 21:30:00,
2013-08-27 16:35:00,95.0,73.5,29.95,WSW,248,5.8,5.8,50,0.00,,,0.00,VWS V14.01,2013-08-27 21:35:00,
2013-08-27 16:40:00,95.1,73.6,29.95,SW,225,10.5,10.5,50,0.00,,,0.00,VWS V14.01,2013-08-27 21:40:00,
2013-08-27 16:45:00,94.8,72.7,29.95,SW,225,12.0,12.0,49,0.00,,,0.00,VWS V14.01,2013-08-27 21:45:00,
2013-08-27 16:50:00,94.8,73.9,29.95,SW,225,2.0,2.0,51,0.00,,,0.00,VWS V14.01,2013-08-27 21:50:00,
2013-08-27 16:55:00,94.8,73.9,29.95,SW,225,8.7,8.7,51,0.00,,,0.00,VWS V14.01,2013-08-27 21:55:00,
2013-08-27 17:00:00,95.1,73.6,29.95,SSW,202,9.1,9.1,50,0.00,,,0.00,VWS V14.01,2013-08-27 22:00:00,
2013-08-27 17:05:00,94.8,73.3,29.95,SSW,202,6.7,6.7,50,0.00,,,0.00,VWS V14.01,2013-08-27 22:05:00,
2013-08-27 17:10:00,95.0,73.5,29.95,SSW,202,7.6,7.6,50,0.00,,,0.00,VWS V14.01,2013-08-27 22:10:00,
2013-08-27 17:15:00,94.8,72.7,29.95,SSW,202,4.9,4.9,49,0.00,,,0.00,VWS V14.01,2013-08-27 22:15:00,
2013-08-27 17:20:00,94.8,73.3,29.95,West,270,5.1,5.1,50,0.00,,,0.00,VWS V14.01,2013-08-27 22:20:00,
2013-08-27 17:25:00,94.8,73.9,29.95,SW,225,2.0,2.0,51,0.00,,,0.00,VWS V14.01,2013-08-27 22:25:00,
2013-08-27 17:30:00,94.8,73.9,29.95,SW,225,6.0,6.0,51,0.00,,,0.00,VWS V14.01,2013-08-27 22:30:00,
2013-08-27 17:35:00,95.1,73.6,29.95,SW,225,6.0,6.0,50,0.00,,,0.00,VWS V14.01,2013-08-27 22:35:00,
2013-08-27 17:40:00,94.6,73.1,29.95,SW,225,6.9,6.9,50,0.00,,,0.00,VWS V14.01,2013-08-27 22:40:00,
2013-08-27 17:45:00,94.2,72.7,29.95,WSW,248,5.5,5.5,50,0.00,,,0.00,VWS V14.01,2013-08-27 22:45:00,
2013-08-27 17:50:00,94.1,72.6,29.95,SSW,202,4.4,4.4,50,0.00,,,0.00,VWS V14.01,2013-08-27 22:50:00,
2013-08-27 17:55:00,93.9,73.0,29.95,WSW,248,6.0,6.0,51,0.00,,,0.00,VWS V14.01,2013-08-27 22:55:00,
2013-08-27 18:00:00,93.9,73.0,29.95,SSW,202,13.1,13.1,51,0.00,,,0.00,VWS V14.01,2013-08-27 23:00:00,
2013-08-27 18:05:00,93.5,72.7,29.95,WSW,248,5.3,5.3,51,0.00,,,0.00,VWS V14.01,2013-08-27 23:05:00,
2013-08-27 18:10:00,93.3,72.5,29.95,SW,225,3.3,3.3,51,0.00,,,0.00,VWS V14.01,2013-08-27 23:10:00,
2013-08-27 18:15:00,93.3,73.1,29.95,SW,225,5.3,5.3,52,0.00,,,0.00,VWS V14.01,2013-08-27 23:15:00,
2013-08-27 18:20:00,93.0,72.8,29.94,SSW,202,7.6,7.6,52,0.00,,,0.00,VWS V14.01,2013-08-27 23:20:00,
2013-08-27 18:25:00,92.8,73.2,29.94,SSW,202,6.2,6.2,53,0.00,,,0.00,VWS V14.01,2013-08-27 23:25:00,
2013-08-27 18:30:00,92.3,72.7,29.94,SSW,202,7.3,7.3,53,0.00,,,0.00,VWS V14.01,2013-08-27 23:30:00,
2013-08-27 18:35:00,91.9,72.9,29.95,SW,225,5.8,5.8,54,0.00,,,0.00,VWS V14.01,2013-08-27 23:35:00,
2013-08-27 18:40:00,91.7,72.7,29.95,SSW,202,5.5,5.5,54,0.00,,,0.00,VWS V14.01,2013-08-27 23:40:00,
2013-08-27 18:45:00,91.4,72.4,29.95,SW,225,6.0,6.0,54,0.00,,,0.00,VWS V14.01,2013-08-27 23:45:00,
2013-08-27 18:50:00,91.2,72.8,29.94,SW,225,4.9,4.9,55,0.00,,,0.00,VWS V14.01,2013-08-27 23:50:00,
2013-08-27 18:55:00,90.5,72.1,29.94,SW,225,6.0,6.0,55,0.00,,,0.00,VWS V14.01,2013-08-27 23:55:00,
2013-08-27 19:00:00,90.3,72.5,29.94,WNW,292,3.1,3.1,56,0.00,,,0.00,VWS V14.01,2013-08-28 00:00:00,
2013-08-27 19:05:00,89.6,72.4,29.94,SW,225,6.2,6.2,57,0.00,,,0.00,VWS V14.01,2013-08-28 00:05:00,
2013-08-27 19:10:00,89.2,72.0,29.94,SW,225,6.9,6.9,57,0.00,,,0.00,VWS V14.01,2013-08-28 00:10:00,
2013-08-27 19:15:00,88.8,72.1,29.94,SW,225,5.1,5.1,58,0.00,,,0.00,VWS V14.01,2013-08-28 00:15:00,
2013-08-27 19:20:00,88.3,72.2,29.95,SW,225,3.1,3.1,59,0.00,,,0.00,VWS V14.01,2013-08-28 00:20:00,
2013-08-27 19:25:00,87.6,71.5,29.94,SW,225,3.3,3.3,59,0.00,,,0.00,VWS V14.01,2013-08-28 00:25:00,
2013-08-27 19:30:00,87.2,71.6,29.95,SW,225,3.3,3.3,60,0.00,,,0.00,VWS V14.01,2013-08-28 00:30:00,
2013-08-27 19:35:00,86.5,71.5,29.94,SW,225,4.6,4.6,61,0.00,,,0.00,VWS V14.01,2013-08-28 00:35:00,
2013-08-27 19:40:00,85.8,71.3,29.95,SSW,202,6.4,6.4,62,0.00,,,0.00,VWS V14.01,2013-08-28 00:40:00,
2013-08-27 19:45:00,85.6,71.6,29.95,SW,225,4.9,4.9,63,0.00,,,0.00,VWS V14.01,2013-08-28 00:45:00,
2013-08-27 19:50:00,85.1,71.6,29.94,WNW,292,5.1,5.1,64,0.00,,,0.00,VWS V14.01,2013-08-28 00:50:00,
2013-08-27 19:55:00,84.7,71.2,29.94,SW,225,6.4,6.4,64,0.00,,,0.00,VWS V14.01,2013-08-28 00:55:00,
2013-08-27 20:00:00,84.5,71.0,29.95,SW,225,5.5,5.5,64,0.00,,,0.00,VWS V14.01,2013-08-28 01:00:00,
2013-08-27 20:05:00,84.3,71.3,29.95,SW,225,5.1,5.1,65,0.00,,,0.00,VWS V14.01,2013-08-28 01:05:00,
2013-08-27 20:10:00,84.2,71.2,29.95,SW,225,3.5,3.5,65,0.00,,,0.00,VWS V14.01,2013-08-28 01:10:00,
2013-08-27 20:15:00,84.0,71.0,29.95,SW,225,3.1,3.1,65,0.00,,,0.00,VWS V14.01,2013-08-28 01:15:00,
2013-08-27 20:20:00,83.8,71.2,29.95,SW,225,5.5,5.5,66,0.00,,,0.00,VWS V14.01,2013-08-28 01:20:00,
2013-08-27 20:25:00,83.6,71.1,29.95,SW,225,7.1,7.1,66,0.00,,,0.00,VWS V14.01,2013-08-28 01:25:00,
2013-08-27 20:30:00,83.3,71.2,29.95,SW,225,3.8,3.8,67,0.00,,,0.00,VWS V14.01,2013-08-28 01:30:00,
2013-08-27 20:35:00,83.1,71.0,29.95,SW,225,3.8,3.8,67,0.00,,,0.00,VWS V14.01,2013-08-28 01:35:00,
2013-08-27 20:40:00,83.1,70.6,29.95,WSW,248,6.7,6.7,66,0.00,,,0.00,VWS V14.01,2013-08-28 01:40:00,
2013-08-27 20:45:00,83.1,70.6,29.96,SW,225,5.3,5.3,66,0.00,,,0.00,VWS V14.01,2013-08-28 01:45:00,
2013-08-27 20:50:00,83.1,70.1,29.96,SW,225,3.3,3.3,65,0.00,,,0.00,VWS V14.01,2013-08-28 01:50:00,
2013-08-27 20:55:00,83.1,70.6,29.96,SW,225,3.5,3.5,66,0.00,,,0.00,VWS V14.01,2013-08-28 01:55:00,
2013-08-27 21:00:00,82.9,70.8,29.96,SW,225,3.3,3.3,67,0.00,,,0.00,VWS V14.01,2013-08-28 02:00:00,
2013-08-27 21:05:00,82.7,71.1,29.96,SW,225,4.6,4.6,68,0.00,,,0.00,VWS V14.01,2013-08-28 02:05:00,
2013-08-27 21:10:00,82.5,70.9,29.96,SW,225,1.5,1.5,68,0.00,,,0.00,VWS V14.01,2013-08-28 02:10:00,
2013-08-27 21:15:00,82.2,71.0,29.96,NW,315,4.9,4.9,69,0.00,,,0.00,VWS V14.01,2013-08-28 02:15:00,
2013-08-27 21:20:00,82.0,70.8,29.96,SW,225,0.8,0.8,69,0.00,,,0.00,VWS V14.01,2013-08-28 02:20:00,
2013-08-27 21:25:00,81.6,70.4,29.96,SSW,202,3.3,3.3,69,0.00,,,0.00,VWS V14.01,2013-08-28 02:25:00,
2013-08-27 21:30:00,81.5,70.4,29.96,SW,225,2.0,2.0,69,0.00,,,0.00,VWS V14.01,2013-08-28 02:30:00,
2013-08-27 21:35:00,81.1,70.4,29.96,SW,225,6.2,6.2,70,0.00,,,0.00,VWS V14.01,2013-08-28 02:35:00,
2013-08-27 21:40:00,80.9,70.2,29.97,SW,225,6.2,6.2,70,0.00,,,0.00,VWS V14.01,2013-08-28 02:40:00,
2013-08-27 21:45:00,80.7,70.4,29.97,SW,225,2.0,2.0,71,0.00,,,0.00,VWS V14.01,2013-08-28 02:45:00,
2013-08-27 21:50:00,80.6,69.9,29.97,SW,225,3.5,3.5,70,0.00,,,0.00,VWS V14.01,2013-08-28 02:50:00,
2013-08-27 21:55:00,80.4,69.7,29.97,SW,225,4.9,4.9,70,0.00,,,0.00,VWS V14.01,2013-08-28 02:55:00,
2013-08-27 22:00:00,80.4,69.7,29.97,SW,225,3.1,3.1,70,0.00,,,0.00,VWS V14.01,2013-08-28 03:00:00,
2013-08-27 22:05:00,80.4,69.7,29.97,SW,225,2.0,2.0,70,0.00,,,0.00,VWS V14.01,2013-08-28 03:05:00,
2013-08-27 22:10:00,80.4,69.7,29.97,SW,225,2.9,2.9,70,0.00,,,0.00,VWS V14.01,2013-08-28 03:10:00,
2013-08-27 22:15:00,80.0,69.3,29.98,SW,225,3.1,3.1,70,0.00,,,0.00,VWS V14.01,2013-08-28 03:15:00,
2013-08-27 22:20:00,79.7,69.1,29.98,SW,225,1.3,1.3,70,0.00,,,0.00,VWS V14.01,2013-08-28 03:20:00,
2013-08-27 22:25:00,79.3,69.1,29.98,SW,225,1.1,1.1,71,0.00,,,0.00,VWS V14.01,2013-08-28 03:25:00,
2013-08-27 22:30:00,78.9,68.7,29.98,SW,225,0.0,0.0,71,0.00,,,0.00,VWS V14.01,2013-08-28 03:30:00,
2013-08-27 22:35:00,78.6,68.8,29.98,SW,225,2.4,2.4,72,0.00,,,0.00,VWS V14.01,2013-08-28 03:35:00,
2013-08-27 22:40:00,78.6,68.8,29.98,WSW,248,0.0,2.9,72,0.00,,,0.00,VWS V14.01,2013-08-28 03:40:00,
2013-08-27 22:45:00,78.2,68.4,29.98,SW,225,0.0,0.0,72,0.00,,,0.00,VWS V14.01,2013-08-28 03:45:00,
2013-08-27 22:50:00,78.0,68.2,29.99,SW,225,1.5,1.5,72,0.00,,,0.00,VWS V14.01,2013-08-28 03:50:00,
2013-08-27 22:55:00,77.7,68.4,29.99,SW,225,1.7,1.7,73,0.00,,,0.00,VWS V14.01,2013-08-28 03:55:00,
2013-08-27 23:00:00,77.7,68.4,29.99,SW,225,0.4,0.4,73,0.00,,,0.00,VWS V14.01,2013-08-28 04:00:00,
2013-08-27 23:01:00,77.7,68.4,29.99,SW,225,0.4,0.4,73,0.00,,,0.00,VWS V14.01,2013-08-28 04:01:00,
2013-08-27 23:06:00,77.7,68.4,29.98,SW,225,0.8,0.8,73,0.00,,,0.00,VWS V14.01,2013-08-28 04:06:00,
2013-08-27 23:11:00,77.7,68.4,29.99,SW,225,1.1,1.1,73,0.00,,,0.00,VWS V14.01,2013-08-28 04:11:00,
2013-08-27 23:16:00,77.5,68.2,29.99,SW,225,3.3,3.3,73,0.00,,,0.00,VWS V14.01,2013-08-28 04:16:00,
2013-08-27 23:21:00,77.5,67.8,29.99,SW,225,2.4,2.4,72,0.00,,,0.00,VWS V14.01,2013-08-28 04:21:00,
2013-08-27 23:26:00,77.7,68.0,29.99,SW,225,3.8,3.8,72,0.00,,,0.00,VWS V14.01,2013-08-28 04:26:00,
2013-08-27 23:31:00,77.7,68.0,29.99,SW,225,2.0,2.0,72,0.00,,,0.00,VWS V14.01,2013-08-28 04:31:00,
2013-08-27 23:36:00,77.9,67.8,29.99,SW,225,2.2,2.2,71,0.00,,,0.00,VWS V14.01,2013-08-28 04:36:00,
2013-08-27 23:41:00,77.7,67.6,29.98,SW,225,3.3,3.3,71,0.00,,,0.00,VWS V14.01,2013-08-28 04:41:00,
2013-08-27 23:46:00,77.7,67.6,29.98,SW,225,2.9,2.9,71,0.00,,,0.00,VWS V14.01,2013-08-28 04:46:00,
2013-08-27 23:51:00,77.5,67.4,29.98,SW,225,3.5,3.5,71,0.00,,,0.00,VWS V14.01,2013-08-28 04:51:00,
2013-08-27 23:56:00,77.3,67.6,29.98,SW,225,0.6,0.6,72,0.00,,,0.00,VWS V14.01,2013-08-28 04:56:00,